Погода в Омахе

США     41°15′31″N   95°56′26″W
темп.,
°C
ветер,
м/с
пор.,
м/с
влажн.,
%
обл.,
%
осадки,
мм/ч
давл.,
гПа
погр.,
м
13 апреля, вт
вт1301:00+5сз411640 0.0 1022334
04:00+3зсз310723 0.0 1022249
07:00+2з37725 0.0 1023172
10:00+6зсз710505 0.0 10241361
13:00+9зсз7104576 0.0 10231656
16:00+11зсз7104019 0.0 10211964
19:00+10зсз584670 0.0 1021522
22:00+6сз335999 0.0 102339
14 апреля, ср
ср1401:00+4ссз35645 0.0 102495
04:00+2сз38675 0.0 1025156
07:00+2сз41169100 0.0 1025497
10:00+4сз7956100 0.0 10261035
13:00+7сз785293 0.0 10251373
16:00+9ссз6851100 0.0 10231635
19:00+8с585690 0.0 10221244
22:00+4с3769100 0.0 1024178
15 апреля, чт
чт1501:00+3сз33745 0.0 102554
04:00+2ссз23819 0.0 102436
07:00+1с379014 0.0 1025168
10:00+6с466774 0.0 1024864
13:00+8с346099 0.0 10221251
16:00+10с3356100 0.0 10201337
19:00+8ссв2465100 0.0 1019171
22:00+7с3772100 0.0 1019225
16 апреля, пт
пт1601:00+6ссв2477100 0.0 1019117
04:00+6всв2380100 0.0 1018114
07:00+5св2580100 0.0 1018241
10:00+7всв3468100 0.0 1018996
13:00+7ссв3474100 0.6 1017969
16:00+7ссв4683100 1.6 1016864
19:00+6св4788100 3.0 1017777
22:00+5ссв3691100 1.1 1019735
17 апреля, сб
сб1701:00+6с4791100 1.3 10181030
04:00+5с6995100 0.8 1019834
07:00+4с6997100 1.1 1020773
10:00+4с5896100 0.3 1021866
13:00+7с6772100 0.4 10211210
16:00+7ссз6770100 0.3 10221177
19:00+7ссз5869100 0.4 1022950
22:00+5ссз4978100 0.0 1024396